Regional Weather Roundup
Issued by NWS Wakefield, VA

Home | Current Version | Previous Version | Graphics & Text | Print | Product List | Glossary On
Versions: 1 2 3 4 5 6 7 8 9 10 11 12 13 14 15 16 17 18 19 20 21 22 23 24 25 26 27 28 29 30 31 32 33 34 35 36 37 38 39 40 41 42 43 44 45 46 47 48 49 50
000
ASUS41 KAKQ 081314
RWRAKQ

REGIONAL WEATHER ROUNDUP
NATIONAL WEATHER SERVICE WAKEFIELD VA
800 AM EST MON FEB 08 2016

Note: "fair" indicates few or no clouds below 12,000 feet with no
significant weather and/or obstructions to visibility. * = Denotes
station may not report precipitation (e.g., rain,snow,etc.),
thunder or fog.

VAZ042-051-052>054-056-081400-
NORTHERN VIRGINIA

CITY           SKY/WX    TMP DP  RH WIND       PRES   REMARKS
WASH NATIONAL  MOCLDY    36  22  56 N8        29.83R
DULLES         FAIR      27  22  81 CALM      29.81S
FORT BELVOIR   FAIR      34  22  60 NW3       29.82R
QUANTICO       FAIR      37  22  54 N6        29.83S
FREDERICKSBRG* FAIR      30  24  80 CALM      29.81S
STAFFORD*      FAIR      33  22  62 N7        29.85F
WARRENTON      FAIR      26  25  94 CALM      29.80F
CULPEPER*      FAIR      25  22  89 CALM      29.81F
MANASSAS*      CLEAR     39  25  56 CALM      29.82S
LEESBURG*      FAIR      32  28  86 CALM      29.82S
WINCHESTER     FAIR      28  25  86 CALM      29.79F
FRONT ROYAL*   FAIR      27  25  93 CALM      29.79S
LURAY*         FAIR      25  25 100 CALM      29.78F FOG
$$

VAZ048-049-060>072-079>083-081400-
CENTRAL AND SOUTH CENTRAL VIRGINIA

CITY           SKY/WX    TMP DP  RH WIND       PRES   REMARKS
RICHMOND       FAIR      34  22  61 N7        29.81R
CHESTERFIELD*  FAIR     N/A N/A N/A N3        29.81F
PETERSBURG*    FAIR      34  21  59 NW3       29.81F
HANOVER        FAIR      34  21  59 CALM      29.82S
TAPPAHANNOCK*  FAIR      33  23  65 W5        29.81R
QUINTON*       FAIR      33  22  62 CALM      29.80S
CHARLOTTSVILLE FAIR      29  23  78 CALM      29.80R
GORDONSVILLE*  FAIR      28  25  88 CALM      29.80S
ORANGE*        FAIR      28  27  93 CALM      29.81F
LOUISA*        FAIR      36  25  64 N3        29.78F
BUMPASS*       FAIR      33  24  67 N5        29.79F
FARMVILLE*     FAIR      29  28  96 CALM      29.80S
CREWE*         FAIR      28  28  99 CALM      29.80S
FORT PICKETT*  FAIR      34  23  64 N3        29.80S
CHASE CITY*    FAIR      28  26  95 CALM      29.81S
CLARKSVILLE*   FAIR      30  27  86 CALM      29.82R
SOUTH HILL*    FAIR      29  23  78 CALM      29.87S
LAWRENCEVILLE* FAIR      31  26  82 CALM      29.80F
EMPORIA*       FAIR      32  25  74 CALM      29.83S
$$

VAZ088>098-081400-
SOUTHEAST VIRGINIA

CITY           SKY/WX    TMP DP  RH WIND       PRES   REMARKS
NORFOLK        FAIR      38  25  59 NW7       29.78R
VIRGINIA BEACH PTSUNNY   42  28  57 NW14      29.77R
NORFOLK NAVAL  FAIR      38  26  62 NW13      29.80R
WEST POINT*    FAIR      34  22  61 NW3       29.82R
SALUDA*        FAIR      37  27  65 NW7       29.79R
NEWPORT NEWS   FAIR      36  24  62 NW8       29.79R
LANGLEY AFB    CLEAR     36  25  63 NW8       29.78R
FORT EUSTIS    FAIR      37  22  54 NW8       29.78R
WILLIAMSBURG*  FAIR      37  27  65 NW6       29.81R
HR EXEC AP*    FAIR      36  25  64 NW5       29.80R
FRANKLIN*      FAIR      34  23  65 NW6       29.81S
US460-WAKEFLD  FAIR      35  23  61 CALM      29.81R
$$

VAZ020-022-025-037-045-081400-
WEST CENTRAL AND SOUTHWEST VIRGINIA

CITY           SKY/WX    TMP DP  RH WIND       PRES   REMARKS
STAUNTON*      FAIR      27  25  89 CALM      29.79S
WAYNESBORO*    FAIR      25  21  87 CALM      29.76S
HOT SPRINGS VA FAIR      32  20  61 CALM      29.67R
LYNCHBURG      FAIR      27  23  85 CALM      29.79F
DANVILLE       FAIR      27  24  89 CALM      29.81S
SOUTH BOSTON*  FAIR      28  26  94 CALM      29.81F
MARTINSVILLE   FAIR      21  19  94 CALM      29.82S
ROANOKE        FAIR      27  23  85 CALM      29.80S
BLACKSBURG     MOCLDY    29  26  89 CALM      29.75F
DUBLIN*        CLOUDY    28  26  90 E5        29.72F
MARION*        FAIR      32  23  69 CALM      29.75R
HILLSVILLE*    CLOUDY    32  23  69 SE5       29.68F
RICHLANDS*     FAIR      35  18  48 S6        29.70R
WISE*          MOCLDY    34  19  55 SW13      29.68F WCI  25
ABINGDON*      MOCLDY    31  23  74 CALM      29.72S
$$

MDZ021>025-VAZ099-100-081400-
SOUTHERN MARYLAND AND THE DELMARVA PENINSULA

CITY           SKY/WX    TMP DP  RH WIND       PRES   REMARKS
PATUXENT RIVER MOCLDY    37  24  59 NW12      29.80R
BAY BRIDGE APT   N/A     37  27  65 N10       29.81R
LEONARDTOWN    MOCLDY    36  23  60 NW5       29.81R
DOVER          CLOUDY    37  29  72 N10       29.75R
GEORGETOWN     CLOUDY    39  28  64 N6        29.75R
EASTON         PTCLDY    36  27  69 N5        29.82R
CAMBRIDGE      CLEAR     36  27  69 N8        29.77R
SALISBURY      CLOUDY    38  29  70 N9        29.75R
OCEAN CITY     CLOUDY    39  32  76 N10       29.74R
WALLOPS ISLAND CLOUDY    39  30  70 NW10      29.75R
ACCOMACK*      CLOUDY    37  30  75 N9G20     29.76R
$$

NCZ012>017-030>032-081400-
NORTH CENTRAL AND EASTERN NORTH CAROLINA

CITY           SKY/WX    TMP DP  RH WIND       PRES   REMARKS
ROANOKE RAPIDS FAIR      34  25  69 CALM      29.82S
RALEIGH        PTCLDY    30  24  78 CALM      29.83S
ELIZABETH CITY SUNNY     35  26  69 W10       29.78R
AHOSKIE*       CLEAR     33  23  67 CALM      29.82F
EDENTON*       SUNNY     38  27  64 NW7       29.81R
CURRITUCK*     MOSUNNY   36  28  73 W7        29.78R
KILL DEVIL HLS CLOUDY    39  32  75 W7G16     29.75R
MANTEO         MOSUNNY   40  32  74 NW13G23   29.76R
CAPE HATTERAS  SUNNY     41  30  65 NW15G23   29.77R
TARBORO*       FAIR      35  27  74 W5        29.83F
GOLDSBORO      CLEAR     34  32  93 CALM      29.83S
WASHINGTON     CLEAR     35  25  67 CALM      29.82F
GREENVILLE     CLEAR     36  27  69 NW3       29.85S
NEW BERN       SUNNY     36  25  64 NW6       29.84S
WILMINGTON     CLEAR     36  30  79 SW6       29.88R
$$

VAZ048-081400-
ELSEWHERE

CITY           SKY/WX    TMP DP  RH WIND       PRES   REMARKS
HARRISBURG PA  CLOUDY    29  22  75 NW7       29.82R
BALTIMORE      PTCLDY    34  20  56 N6        29.81R
ANNAPOLIS      CLOUDY    37  26  64 NW8       29.81R
ANDREWS AFB    FAIR      31  23  71 N7        29.80R
PHILADELPHIA   CLOUDY    39  26  59 N10G25    29.78R
HENDERSON NC   PTCLDY    30  25  81 CALM      29.81S
GREENSBORO     PTCLDY    30  24  78 SW3       29.79F
ROCKY MOUNT    CLEAR     32  26  78 CALM      29.84S
$$

VAZ100-081400-
MARINE

STATION/POSITION TIME  TEMP    WIND        PRES    WAVE   SWELL
                       AIR SEA DIR/SP/G            HT/PER HT/PER
                 (UTC) (F)     (DEG/KT/KT) (MB)    (FT/S) (FT/S)
BRANDYWINE LGT   1200   38      20/ 20/ 21 1006.5R
CAPE MAY NJ      1200   39 42   20/  5/ 10 1006.0R
LEWES DE         1200   40 40   10/ 17/ 19 1006.7R
15NM E FENWICK I 1250   41 45              1004.9R  15/10
OCEAN-CITY-INLET 1200   41 41   20/ 15/ 22 1005.3R
WACHAPREAGUE VA  1200   39 42  320/  5/ 10 1006.6R
THOMAS POINT MD  1300   37 38  340/ 12/ 14 1009.8R
GOOSES REEF MD   1300   39 39  350/ 12/ 16 1010.0R   2/ 3
COVE POINT MD    1200   38      20/ 12/ 17 1008.8R
SOLOMONS ISLAND  1200   36 41  310/  5/  8   N/A
BISHOPS HEAD MD  1200   36 39  330/  8/ 11 1006.5R
POTOMAC MD       1300   38 40  330/ 12/ 14 1008.0R   1/ 2
CAMBRIDGE MD     1200   38 40  330/ 11/ 12 1006.9R
LEWISETTA VA     1200   38 41  350/  9/ 12 1007.9R
RAPPAHANNOCK LGT 1200          330/ 20/ 22 1007.2R
STINGRAY PT      1300   38 42  320/ 12/ 17 1008.6R   2/ 3
YORK RVR RNG VA  1200   37     330/ 13/ 15 1006.9R
YORKTOWN VA      1200   38 42  320/ 14/ 17 1007.6R
JAMESTOWN VA     1300   36 44  310/ 10/ 12   N/A
DOMINION TERM VA 1200   39     340/ 15/ 19 1007.8R
KIPTOPEKE VA     1200      42  350/ 17/ 21   N/A
CHES BAY BRIDGE  1200   40 43  310/ 15/ 18 1006.8R
CAPE HENRY VA    1200   41     330/ 17/ 20   N/A
CHESAPEAKE LGHT  1200   41     340/ 25/ 27 1006.7R
WILLOUBY STN VA  1200   38     320/ 11/ 13   N/A
CAPE HENRY BUOY  1228      45                N/A    10/11   5/11
1ST LANDING BUOY 1300      43                N/A     6/ 7
CAPE CHARLES BUO 1226      44                N/A     9/12   8/12
OFFSHORE WE BUOY 1221      47                N/A    11/12  10/12
64NM E OF VA BCH 1250   46 53  340/ 27/ 33 1003.6R  17/12  15/12
DUCK PIER NC     1200   41 51  330/ 17/ 22 1005.6R
44100 DUCK FRF   1224      47                N/A    14/12   8/12
44056 DUCK FRF   1211      44                N/A    11/12   8/12
OREGON INLET NC  1200   41 45  310/ 15/ 22 1006.0R
HATTERAS NC      1200   41 46  300/ 22/ 27 1006.5R
DIAMOND SHLS NC  1250   44 59  310/ 23/ 29 1007.3R  12/17  10/17
$$



USA.gov is the U.S. government's official web portal to all federal, state and local government web resources and services.